DW5459 Weather Reports


Display with metric or nautical units.
time (UTC)temp
F
wind
direction
speed
MPH
gust
MPH
rain 1hr
in
rain 24hr
in
rain mn
in
humidity
%
barometer
mb
20260504050530 49 317 21.0 31.0 0.00 0.00 0.00 70
20260504050108 48 325 19.0 31.0 0.00 0.00 0.00 70 998.7
20260504050024 49 355 19.0 31.0 0.00 0.00 0.00 70
20260504045531 49 346 18.0 28.0 0.00 0.00 0.00 69
20260504045048 49 333 17.0 28.0 0.00 0.00 0.00 68
20260504044609 49 338 15.0 29.0 0.00 0.00 0.00 68 998.6
20260504044520 49 345 16.0 29.0 0.00 0.00 0.00 68
20260504044015 49 332 21.0 28.0 0.00 0.00 0.00 68
20260504043530 50 355 18.0 30.0 0.00 0.00 0.00 68
20260504043038 49 340 19.0 34.0 0.00 0.00 0.00 68 998.5
20260504043024 50 340 18.0 34.0 0.00 0.00 0.00 68
20260504042521 50 350 24.0 34.0 0.00 0.00 0.00 67
20260504042037 50 355 19.0 37.0 0.00 0.00 0.00 67
20260504041533 51 331 25.0 37.0 0.00 0.00 0.00 66
20260504041517 50 331 24.0 37.0 0.00 0.00 0.00 66 998.0
20260504041027 51 331 25.0 35.0 0.00 0.00 0.00 66
20260504040521 51 327 20.0 33.0 0.00 0.00 0.00 66
20260504040105 51 322 20.0 33.0 0.00 0.00 0.00 67 997.7
20260504040037 51 9 19.0 33.0 0.00 0.00 0.00 67
20260504035554 52 342 18.0 32.0 0.00 0.00 0.00 66
20260504035028 52 333 20.0 32.0 0.00 0.00 0.00 64
20260504034607 52 325 21.0 36.0 0.00 0.00 0.00 63 997.3
20260504034523 53 338 21.0 36.0 0.00 0.00 0.00 62
20260504034018 54 342 25.0 36.0 0.00 0.00 0.00 61
20260504033534 56 333 23.0 35.0 0.00 0.00 0.00 57
20260504033043 60 341 17.0 30.0 0.00 0.00 0.00 50 996.1
20260504033029 60 28 18.0 30.0 0.00 0.00 0.00 49
20260504032524 63 293 12.0 19.0 0.00 0.00 0.00 48
20260504032039 63 269 10.0 15.0 0.00 0.00 0.00 46
20260504031605 63 249 9.0 15.0 0.00 0.00 0.00 45 994.7
20260504031549 64 257 11.0 15.0 0.00 0.00 0.00 44
20260504031024 64 266 9.0 16.0 0.00 0.00 0.00 44
20260504030518 65 271 11.0 18.0 0.00 0.00 0.00 44
20260504030106 64 248 11.0 20.0 0.00 0.00 0.00 44 994.9
20260504030031 65 281 11.0 22.0 0.00 0.00 0.00 43
20260504025547 65 279 14.0 24.0 0.00 0.00 0.00 43
20260504025041 66 272 16.0 31.0 0.00 0.00 0.00 41
20260504024602 67 281 21.0 36.0 0.00 0.00 0.00 39 995.6
20260504024533 67 256 21.0 36.0 0.00 0.00 0.00 39
20260504024029 68 279 18.0 32.0 0.00 0.00 0.00 37
20260504023524 67 273 14.0 26.0 0.00 0.00 0.00 39
20260504023114 68 270 17.0 41.0 0.00 0.00 0.00 37 995.8
20260504023017 68 262 17.0 41.0 0.00 0.00 0.00 37
20260504022533 68 287 21.0 41.0 0.00 0.00 0.00 36
20260504022026 68 266 18.0 30.0 0.00 0.00 0.00 36
20260504021542 65 282 21.0 30.0 0.00 0.00 0.00 38 995.9
20260504021521 66 290 22.0 30.0 0.00 0.00 0.00 39
20260504021015 65 267 9.0 13.0 0.00 0.00 0.00 41
20260504020531 65 247 10.0 13.0 0.00 0.00 0.00 40
20260504020100 66 252 9.0 16.0 0.00 0.00 0.00 39 995.0
20260504020026 66 260 9.0 16.0 0.00 0.00 0.00 38
20260504015521 66 250 10.0 16.0 0.00 0.00 0.00 38
20260504015016 67 245 11.0 17.0 0.00 0.00 0.00 38
20260504014530 66 234 11.0 17.0 0.00 0.00 0.00 38
20260504014503 66 240 10.0 17.0 0.00 0.00 0.00 38 995.1
20260504014044 66 259 9.0 17.0 0.00 0.00 0.00 39
20260504013517 66 250 9.0 14.0 0.00 0.00 0.00 39
20260504013032 66 240 10.0 16.0 0.00 0.00 0.00 38
20260504013012 66 246 9.0 16.0 0.00 0.00 0.00 38 995.4
20260504012529 67 256 10.0 16.0 0.00 0.00 0.00 38
20260504012024 67 244 9.0 15.0 0.00 0.00 0.00 38
20260504011552 67 238 10.0 16.0 0.00 0.00 0.00 37 995.7
20260504011518 67 238 11.0 16.0 0.00 0.00 0.00 38
20260504011032 67 244 11.0 16.0 0.00 0.00 0.00 38
20260504010529 66 245 9.0 13.0 0.00 0.00 0.00 40
20260504010117 66 226 8.0 15.0 0.00 0.00 0.00 40 996.1
20260504010024 66 256 9.0 15.0 0.00 0.00 0.00 40
20260504005538 66 239 10.0 15.0 0.00 0.00 0.00 39
20260504005033 66 242 8.0 13.0 0.00 0.00 0.00 40
20260504004621 66 249 7.0 11.0 0.00 0.00 0.00 40 996.5
20260504004528 66 247 7.0 11.0 0.00 0.00 0.00 40
20260504004021 67 245 6.0 10.0 0.00 0.00 0.00 39
20260504003531 67 239 6.0 13.0 0.00 0.00 0.00 38
20260504003053 67 258 7.0 13.0 0.00 0.00 0.00 39 996.9
20260504003024 67 260 8.0 13.0 0.00 0.00 0.00 39
20260504002519 67 244 8.0 12.0 0.00 0.00 0.00 38
20260504002033 68 244 9.0 14.0 0.00 0.00 0.00 37
20260504001614 68 254 9.0 17.0 0.00 0.00 0.00 36 997.3
20260504001528 68 259 9.0 17.0 0.00 0.00 0.00 36
20260504001023 68 243 10.0 17.0 0.00 0.00 0.00 35
20260504000519 69 249 11.0 19.0 0.00 0.00 0.00 35
20260504000113 68 238 13.0 23.0 0.00 0.00 0.00 34 997.8
20260504000033 69 268 13.0 23.0 0.00 0.00 0.00 34
20260503235526 70 253 15.0 23.0 0.00 0.00 0.00 33
20260503235019 71 263 14.0 22.0 0.00 0.00 0.00 32
20260503234609 71 261 14.0 25.0 0.00 0.00 0.00 30 998.1
20260503234515 72 275 15.0 25.0 0.00 0.00 0.00 30
20260503234032 71 264 16.0 25.0 0.00 0.00 0.00 30
20260503233525 71 247 16.0 26.0 0.00 0.00 0.00 32
20260503233036 70 253 15.0 26.0 0.00 0.00 0.00 33 998.4
20260503233020 70 255 16.0 26.0 0.00 0.00 0.00 33
20260503232535 70 249 12.0 20.0 0.00 0.00 0.00 35
20260503232029 70 250 13.0 20.0 0.00 0.00 0.00 35
20260503231601 69 255 13.0 18.0 0.00 0.00 0.00 34 998.6
20260503231524 69 234 14.0 18.0 0.00 0.00 0.00 34
20260503231019 69 241 12.0 18.0 0.00 0.00 0.00 35
20260503230533 69 240 11.0 17.0 0.00 0.00 0.00 34
20260503230122 69 267 12.0 18.0 0.00 0.00 0.00 34 999.0
20260503230028 69 251 13.0 18.0 0.00 0.00 0.00 35
20260503225537 70 254 13.0 23.0 0.00 0.00 0.00 33
20260503225053 70 251 13.0 24.0 0.00 0.00 0.00 34
20260503224526 70 261 14.0 24.0 0.00 0.00 0.00 33
20260503224503 70 288 14.0 24.0 0.00 0.00 0.00 33 999.4
20260503224020 71 259 16.0 23.0 0.00 0.00 0.00 31
20260503223517 71 251 18.0 24.0 0.00 0.00 0.00 30
20260503223051 70 250 14.0 24.0 0.00 0.00 0.00 31 999.8
20260503223032 71 275 15.0 24.0 0.00 0.00 0.00 30
20260503222545 70 265 15.0 25.0 0.00 0.00 0.00 32
20260503222020 70 250 17.0 25.0 0.00 0.00 0.00 31
20260503221557 71 252 14.0 27.0 0.00 0.00 0.00 31 1000.0
20260503221536 71 244 15.0 27.0 0.00 0.00 0.00 31
20260503221051 71 278 17.0 29.0 0.00 0.00 0.00 30
20260503220544 70 270 19.0 29.0 0.00 0.00 0.00 30
20260503220032 70 254 15.0 27.0 0.00 0.00 0.00 32 1000.4
20260503220017 70 246 15.0 27.0 0.00 0.00 0.00 32
20260503215529 71 256 18.0 28.0 0.00 0.00 0.00 29
20260503215025 71 272 17.0 32.0 0.00 0.00 0.00 29
20260503214555 70 261 20.0 32.0 0.00 0.00 0.00 29 1000.6
20260503214541 71 251 19.0 28.0 0.00 0.00 0.00 29
20260503214035 70 245 17.0 27.0 0.00 0.00 0.00 30
20260503213528 71 239 15.0 32.0 0.00 0.00 0.00 32
20260503213104 71 276 20.0 32.0 0.00 0.00 0.00 27 1001.0
20260503213023 72 250 19.0 32.0 0.00 0.00 0.00 28
20260503212538 71 266 19.0 27.0 0.00 0.00 0.00 28
20260503212051 71 272 18.0 27.0 0.00 0.00 0.00 29
20260503211621 71 263 16.0 29.0 0.00 0.00 0.00 29 1001.4
20260503211523 71 250 16.0 29.0 0.00 0.00 0.00 28
20260503211015 71 281 19.0 30.0 0.00 0.00 0.00 28
20260503210529 71 278 21.0 29.0 0.00 0.00 0.00 27
20260503210023 70 275 15.0 25.0 0.00 0.00 0.00 30
20260503210005 70 270 16.0 25.0 0.00 0.00 0.00 30 1001.9
20260503205516 71 249 17.0 25.0 0.00 0.00 0.00 30
20260503205032 70 270 16.0 25.0 0.00 0.00 0.00 31
20260503204555 69 273 14.0 23.0 0.00 0.00 0.00 31 1002.2
20260503204528 69 248 13.0 23.0 0.00 0.00 0.00 31
20260503204024 69 241 14.0 22.0 0.00 0.00 0.00 32
20260503203521 69 269 14.0 26.0 0.00 0.00 0.00 33
20260503203117 68 248 15.0 26.0 0.00 0.00 0.00 32 1002.5
20260503203037 69 245 15.0 26.0 0.00 0.00 0.00 32
20260503202552 69 262 20.0 27.0 0.00 0.00 0.00 30
20260503202025 69 284 19.0 30.0 0.00 0.00 0.00 30
20260503201616 70 275 20.0 30.0 0.00 0.00 0.00 30 1003.0
20260503201541 70 244 20.0 30.0 0.00 0.00 0.00 30
20260503201036 71 248 18.0 28.0 0.00 0.00 0.00 30
20260503200531 70 240 18.0 26.0 0.00 0.00 0.00 30
20260503200115 70 254 15.0 30.0 0.00 0.00 0.00 31 1003.4
20260503200024 70 258 15.0 30.0 0.00 0.00 0.00 33
20260503195538 70 243 16.0 30.0 0.00 0.00 0.00 31
20260503195032 70 254 17.0 25.0 0.00 0.00 0.00 32
20260503194612 68 250 16.0 28.0 0.00 0.00 0.00 32 1003.8
20260503194527 69 258 16.0 28.0 0.00 0.00 0.00 32
20260503194038 69 260 18.0 28.0 0.00 0.00 0.00 32
20260503193532 69 248 18.0 28.0 0.00 0.00 0.00 32
20260503193115 68 268 16.0 26.0 0.00 0.00 0.00 32 1004.1
20260503193027 69 267 17.0 26.0 0.00 0.00 0.00 33
20260503192518 69 270 15.0 27.0 0.00 0.00 0.00 32
20260503192042 69 250 18.0 27.0 0.00 0.00 0.00 33
20260503191534 69 250 15.0 26.0 0.00 0.00 0.00 33
20260503191502 68 254 14.0 26.0 0.00 0.00 0.00 32 1004.5
20260503191028 69 259 16.0 28.0 0.00 0.00 0.00 33
20260503190522 69 243 16.0 32.0 0.00 0.00 0.00 34
20260503190034 69 274 13.0 25.0 0.00 0.00 0.00 34
20260503185529 69 251 17.0 23.0 0.00 0.00 0.00 34
20260503185026 68 263 15.0 20.0 0.00 0.00 0.00 33
20260503184615 68 234 14.0 20.0 0.00 0.00 0.00 34 1005.1
20260503184522 68 244 15.0 20.0 0.00 0.00 0.00 33
20260503184035 68 250 13.0 22.0 0.00 0.00 0.00 35
20260503183529 68 254 10.0 22.0 0.00 0.00 0.00 35
20260503183138 67 244 12.0 21.0 0.00 0.00 0.00 35 1005.8
20260503183042 67 256 12.0 21.0 0.00 0.00 0.00 34
20260503182515 67 261 12.0 21.0 0.00 0.00 0.00 36
20260503182030 67 250 13.0 18.0 0.00 0.00 0.00 35
20260503181635 66 267 12.0 18.0 0.00 0.00 0.00 36 1006.4
20260503181545 66 233 14.0 18.0 0.00 0.00 0.00 35
20260503181037 66 268 12.0 22.0 0.00 0.00 0.00 36
20260503180552 66 238 15.0 22.0 0.00 0.00 0.00 36
20260503180118 65 258 11.0 23.0 0.00 0.00 0.00 37 1007.0
20260503180026 66 256 12.0 23.0 0.00 0.00 0.00 37
20260503175519 65 261 13.0 24.0 0.00 0.00 0.00 38
20260503175034 64 228 16.0 24.0 0.00 0.00 0.00 37
20260503174551 64 236 14.0 22.0 0.00 0.00 0.00 37 1007.6
20260503174529 64 226 15.0 22.0 0.00 0.00 0.00 38
20260503174022 64 252 10.0 21.0 0.00 0.00 0.00 38
20260503173535 64 227 14.0 22.0 0.00 0.00 0.00 37
20260503173058 63 252 13.0 22.0 0.00 0.00 0.00 39 1008.1
20260503173027 64 248 14.0 22.0 0.00 0.00 0.00 38
20260503172520 63 241 14.0 22.0 0.00 0.00 0.00 39
20260503172017 63 236 15.0 20.0 0.00 0.00 0.00 38
20260503171617 62 234 13.0 18.0 0.00 0.00 0.00 39 1008.5
20260503171531 63 234 13.0 18.0 0.00 0.00 0.00 40
20260503171027 62 261 10.0 16.0 0.00 0.00 0.00 40
20260503170543 62 242 12.0 17.0 0.00 0.00 0.00 40
20260503170119 60 221 10.0 19.0 0.00 0.00 0.00 41 1008.7
20260503150541 52 240 8.0 11.0 0.00 0.00 0.00 56
20260503150116 51 248 7.0 11.0 0.00 0.00 0.00 58 1010.9
20260503131023 44 271 6.0 8.0 0.00 0.00 0.00 77
20260503130539 43 267 5.0 7.0 0.00 0.00 0.00 77
20260503130116 43 263 3.0 7.0 0.00 0.00 0.00 78 1012.0
20260503110534 37 355 1.0 2.0 0.00 0.00 0.00 85
20260503110116 37 355 0.0 2.0 0.00 0.00 0.00 84 1011.9
20260503100114 37 355 1.0 3.0 0.00 0.00 0.00 83 1012.2
20260503081619 39 355 0.0 3.0 0.00 0.00 0.00 82 1012.1
20260503081516 40 355 1.0 3.0 0.00 0.00 0.00 82
20260503081032 40 355 2.0 4.0 0.00 0.00 0.00 82
20260503080524 40 355 2.0 4.0 0.00 0.00 0.00 82
20260503072520 42 355 0.0 0.0 0.00 0.00 0.00 77
20260503072016 43 355 0.0 2.0 0.00 0.00 0.00 77
20260503071606 42 355 0.0 3.0 0.00 0.00 0.00 76 1012.0
20260503071532 43 355 1.0 3.0 0.00 0.00 0.00 77
20260503071027 43 355 2.0 4.0 0.00 0.00 0.00 77
20260503070523 43 355 2.0 4.0 0.00 0.00 0.00 78
20260503060105 44 355 3.0 6.0 0.00 0.00 0.00 73 1012.0
20260503055019 47 13 4.0 5.0 0.00 0.00 0.00 70
20260503054612 47 13 4.0 5.0 0.00 0.00 0.00 69 1011.8
20260503054534 48 13 5.0 5.0 0.00 0.00 0.00 69
20260503054050 48 19 3.0 5.0 0.00 0.00 0.00 69
20260503053523 49 19 3.0 6.0 0.00 0.00 0.00 68
20260503053113 48 19 3.0 7.0 0.00 0.00 0.00 68 1011.6
20260503053019 49 19 4.0 7.0 0.00 0.00 0.00 68
20260503052532 49 19 4.0 7.0 0.00 0.00 0.00 67
20260503052030 49 19 4.0 9.0 0.00 0.00 0.00 67
20260503051544 49 19 5.0 9.0 0.00 0.00 0.00 66 1011.5
20260503051524 49 19 5.0 9.0 0.00 0.00 0.00 66